Flag for U.S.A. Weather past 2 weeks in Fayetteville, North Carolina, U.S.A.

Now
92 °F

Passing clouds.


Feels Like: 97 °F
Forecast: 71 / 91 °F
Wind: 12 mph from South

Location: Fayetteville Regional Airport

Current Time: Jul 7, 2015 at 6:51:48 PM

Latest Report: Jul 7, 2015 at 5:53 PM


Visibility: 10 mi

Pressure: 30.03 "Hg

Humidity: 47%

Dew point: 69 °F

Location of FayettevilleLocation

Historic Weather in Fayetteville — Graph

°F

Fayetteville temperature yesterday

Maximum temperature yesterday: 90 °F (at 3:53 PM)
Minimum temperature yesterday: 73 °F (at 5:53 AM)
Average temperature yesterday: 81 °F

Past Weeks' High & Low Weather Summary

 TemperatureHumidityPressure
High96 °F (Jun 22, 4:53 PM)97% (Jul 7, 5:53 AM)30.12 "Hg (Jul 7, 5:53 AM)
Low66 °F (Jun 29, 3:53 AM)33% (Jun 28, 5:53 PM)29.74 "Hg (Jun 27, 5:53 PM)
Average81 °F71%29.95 "Hg
* Reported Jun 22 4:53 PM — Jul 7 4:53 PM, Fayetteville, Weather by CustomWeather, © 2015

Note: Actual official high and low records may vary slightly from our data, if they occured in-between our weather recording intervals... More about our weather records

Advertising

Fayetteville weather history for previous 24 hours

 ConditionsComfort  
Time TempWeatherWind HumidityBarometerVisibility
4:53 PM
Tue, Jul 7
92 °FSunny.5 mph46%30.05 "Hg10 mi
3:53 PM92 °FPassing clouds.13 mph47%30.06 "Hg10 mi
2:53 PM93 °FPassing clouds.10 mph46%30.07 "Hg10 mi
1:53 PM91 °FScattered clouds.12 mph49%30.08 "Hg10 mi
12:53 PM90 °FScattered clouds.7 mph52%30.10 "Hg10 mi
11:53 AM87 °FScattered clouds.7 mph59%30.10 "Hg10 mi
10:53 AM85 °FSunny.7 mph68%30.11 "Hg10 mi
9:53 AM84 °FSunny.9 mph67%30.12 "Hg10 mi
8:53 AM80 °FSunny.6 mph79%30.12 "Hg10 mi
7:53 AM76 °FSunny.6 mph91%30.11 "Hg9 mi
6:53 AM73 °FClear.5 mph94%30.09 "Hg7 mi
5:53 AM72 °FClear.3 mph97%30.08 "Hg9 mi
4:53 AM73 °FClear.3 mph94%30.07 "Hg10 mi
3:53 AM73 °FClear.6 mph90%30.06 "Hg10 mi
2:53 AM73 °FClear.7 mph94%30.06 "Hg10 mi
1:53 AM74 °FClear.5 mph91%30.06 "Hg10 mi
12:53 AM75 °FClear.3 mph90%30.07 "Hg10 mi
11:53 PM
Mon, Jul 6
76 °FClear.8 mph88%30.06 "Hg10 mi
10:53 PM76 °FClear.5 mph85%30.06 "Hg10 mi
9:53 PM78 °FClear.6 mph76%30.06 "Hg10 mi
8:53 PM81 °FPassing clouds.7 mph60%30.04 "Hg10 mi
7:53 PM82 °FBroken clouds.8 mph56%30.05 "Hg10 mi
6:53 PM89 °FScattered clouds.9 mph50%30.04 "Hg10 mi
Weather by CustomWeather, © 2015

See weather overviewHow to use our weather pages